EAG5527 LTFM-OJAI

Flight info

Callsign EAG5527
Flight time 1h 41m
Altitude 35000
Route RATVU UT35 AYT UA16 TOMBI DCT IDAKU L35 PIKOG L609 VOLFO N134 RALNA
Aircraft A321/M-SDE3FGHIRWY/LB1

Departure

Time 2026-05-09 01:00
Airport İstanbul Airport (LTFM)

Arrival

Time 2026-05-09 02:41
Airport Queen Alia International Airport (OJAI)
Time Latitude Longitude Altitude Speed Heading
2026-05-09 00:42 41.26465 28.73535 334 ft 0 kts 71°
2026-05-09 00:47 41.26463 28.73530 334 ft 3 kts 72°
2026-05-09 00:47 41.26458 28.73495 332 ft 4 kts 89°
2026-05-09 00:48 41.26460 28.73462 331 ft 4 kts 107°
2026-05-09 00:48 41.26471 28.73430 329 ft 4 kts 126°
2026-05-09 00:48 41.26489 28.73405 330 ft 4 kts 150°
2026-05-09 00:48 41.26499 28.73398 331 ft 0 kts 161°
2026-05-09 00:53 41.26495 28.73400 332 ft 1 kts 161°
2026-05-09 00:54 41.26484 28.73405 331 ft 2 kts 161°
2026-05-09 00:54 41.26466 28.73415 333 ft 3 kts 157°
2026-05-09 00:54 41.26441 28.73426 330 ft 4 kts 162°
2026-05-09 00:54 41.26410 28.73440 333 ft 5 kts 161°
2026-05-09 00:55 41.26371 28.73458 333 ft 6 kts 160°
2026-05-09 00:55 41.26327 28.73479 332 ft 7 kts 160°
2026-05-09 00:55 41.26293 28.73494 333 ft 8 kts 161°
2026-05-09 00:55 41.26239 28.73496 332 ft 8 kts 213°
2026-05-09 00:56 41.26221 28.73424 331 ft 9 kts 268°
2026-05-09 00:56 41.26220 28.73354 333 ft 7 kts 269°
2026-05-09 00:56 41.26219 28.73280 332 ft 8 kts 269°
2026-05-09 00:56 41.26218 28.73198 333 ft 9 kts 269°
2026-05-09 00:57 41.26217 28.73109 332 ft 10 kts 269°
2026-05-09 00:57 41.26216 28.73011 333 ft 11 kts 269°
2026-05-09 00:57 41.26216 28.72967 333 ft 0 kts 269°
2026-05-09 00:57 41.26216 28.72950 334 ft 4 kts 269°
2026-05-09 00:58 41.26214 28.72883 334 ft 9 kts 268°
2026-05-09 00:58 41.26216 28.72797 334 ft 8 kts 289°
2026-05-09 00:58 41.26255 28.72775 330 ft 0 kts 357°
2026-05-09 00:59 41.26271 28.72774 334 ft 15 kts 357°
2026-05-09 01:00 41.26618 28.72768 332 ft 84 kts 359°
2026-05-09 01:00 41.27398 28.72751 334 ft 137 kts 359°
2026-05-09 01:00 41.28508 28.72729 387 ft 177 kts 359°
2026-05-09 01:00 41.29736 28.72715 991 ft 174 kts
2026-05-09 01:01 41.30972 28.72704 1510 ft 181 kts 359°
2026-05-09 01:01 41.32299 28.72684 1736 ft 202 kts 358°
2026-05-09 01:01 41.33767 28.72659 1960 ft 221 kts 359°
2026-05-09 01:01 41.35371 28.72626 2175 ft 241 kts 358°
2026-05-09 01:02 41.37124 28.72399 2317 ft 265 kts 336°
2026-05-09 01:02 41.38583 28.70969 2886 ft 263 kts 301°
2026-05-09 01:02 41.39184 28.68740 3576 ft 257 kts 270°
2026-05-09 01:02 41.39092 28.66388 4381 ft 253 kts 260°
2026-05-09 01:03 41.38806 28.64073 5174 ft 255 kts 258°
2026-05-09 01:03 41.38519 28.61739 5919 ft 257 kts 260°
2026-05-09 01:03 41.38302 28.59374 6678 ft 258 kts 261°
2026-05-09 01:03 41.37659 28.57173 7292 ft 260 kts 231°
2026-05-09 01:04 41.36236 28.55692 7958 ft 265 kts 205°
2026-05-09 01:04 41.34441 28.55077 8601 ft 272 kts 185°
2026-05-09 01:04 41.32535 28.55078 9261 ft 276 kts 182°
2026-05-09 01:04 41.30610 28.55122 9960 ft 278 kts 181°
2026-05-09 01:05 41.28638 28.55200 10306 ft 294 kts 178°
2026-05-09 01:05 41.26546 28.55688 10441 ft 318 kts 166°
2026-05-09 01:05 41.22378 28.58598 10764 ft 361 kts 142°
2026-05-09 01:06 41.20541 28.60934 11261 ft 368 kts 138°
2026-05-09 01:06 41.18695 28.63316 11856 ft 372 kts 139°
2026-05-09 01:06 41.16822 28.65703 12456 ft 375 kts 139°
2026-05-09 01:06 41.14931 28.68107 13047 ft 378 kts 139°
2026-05-09 01:07 41.13054 28.70574 13657 ft 383 kts 134°
2026-05-09 01:07 41.11449 28.73427 14218 ft 389 kts 126°
2026-05-09 01:07 41.09973 28.76449 14758 ft 392 kts 126°
2026-05-09 01:07 41.08479 28.79495 15306 ft 395 kts 126°
2026-05-09 01:08 41.06973 28.82557 15842 ft 399 kts 126°
2026-05-09 01:08 41.05415 28.85610 16381 ft 400 kts 131°
2026-05-09 01:08 41.03479 28.88247 16899 ft 399 kts 144°
2026-05-09 01:08 41.01150 28.90223 17418 ft 398 kts 157°
2026-05-09 01:09 40.98539 28.91439 17933 ft 398 kts 170°
2026-05-09 01:09 40.95797 28.91851 18436 ft 398 kts 182°
2026-05-09 01:09 40.93035 28.91584 18867 ft 399 kts 187°
2026-05-09 01:09 40.90262 28.91228 19298 ft 402 kts 187°
2026-05-09 01:10 40.87458 28.90931 19732 ft 406 kts 182°
2026-05-09 01:10 40.84624 28.91088 20151 ft 410 kts 178°
2026-05-09 01:10 40.81767 28.91325 20572 ft 413 kts 178°
2026-05-09 01:10 40.78891 28.91566 20949 ft 416 kts 179°
2026-05-09 01:11 40.75990 28.91807 21328 ft 419 kts 179°
2026-05-09 01:11 40.73103 28.92042 21730 ft 422 kts 179°
2026-05-09 01:11 40.70156 28.92279 22124 ft 425 kts 179°
2026-05-09 01:11 40.67199 28.92518 22512 ft 428 kts 179°
2026-05-09 01:12 40.64219 28.92759 22894 ft 430 kts 179°
2026-05-09 01:12 40.61223 28.93001 23265 ft 433 kts 179°
2026-05-09 01:12 40.58206 28.93349 23637 ft 437 kts 173°
2026-05-09 01:12 40.55234 28.94298 23948 ft 443 kts 163°
2026-05-09 01:13 40.52396 28.95921 24251 ft 448 kts 154°
2026-05-09 01:13 40.49742 28.98111 24601 ft 451 kts 149°
2026-05-09 01:13 40.47112 29.00375 24944 ft 453 kts 149°
2026-05-09 01:13 40.44465 29.02644 25267 ft 455 kts 149°
2026-05-09 01:14 40.41805 29.04910 25571 ft 457 kts 149°
2026-05-09 01:14 40.39127 29.07182 25866 ft 459 kts 149°
2026-05-09 01:14 40.36431 29.09466 26091 ft 464 kts 150°
2026-05-09 01:14 40.33713 29.11766 26314 ft 467 kts 150°
2026-05-09 01:15 40.30974 29.14083 26603 ft 470 kts 150°
2026-05-09 01:15 40.28222 29.16416 26892 ft 472 kts 150°
2026-05-09 01:15 40.25462 29.18755 27175 ft 474 kts 150°
2026-05-09 01:15 40.22681 29.21109 27467 ft 477 kts 150°
2026-05-09 01:16 40.19883 29.23441 27750 ft 478 kts 153°
2026-05-09 01:16 40.16910 29.25370 28026 ft 476 kts 161°
2026-05-09 01:16 40.13818 29.26852 28502 ft 471 kts 163°
2026-05-09 01:17 40.07637 29.29777 29160 ft 474 kts 164°
2026-05-09 01:17 40.04544 29.31246 29506 ft 474 kts 164°
2026-05-09 01:17 40.01446 29.32719 29853 ft 473 kts 164°
2026-05-09 01:17 39.98352 29.34190 30201 ft 473 kts 164°
2026-05-09 01:18 39.95260 29.35659 30509 ft 473 kts 164°
2026-05-09 01:18 39.92166 29.37125 30809 ft 473 kts 164°
2026-05-09 01:18 39.89079 29.38613 31079 ft 475 kts 163°
2026-05-09 01:18 39.86002 29.40213 31354 ft 476 kts 161°
2026-05-09 01:19 39.82949 29.41900 31657 ft 477 kts 160°
2026-05-09 01:19 39.79951 29.43611 31974 ft 477 kts 160°
2026-05-09 01:19 39.76920 29.45354 32290 ft 476 kts 160°
2026-05-09 01:19 39.73883 29.47079 32611 ft 476 kts 160°
2026-05-09 01:20 39.70844 29.48773 32922 ft 475 kts 161°
2026-05-09 01:20 39.67802 29.50440 33189 ft 475 kts 161°
2026-05-09 01:20 39.64747 29.52096 33386 ft 477 kts 162°
2026-05-09 01:20 39.61849 29.53635 33608 ft 478 kts 162°
2026-05-09 01:21 39.58804 29.55184 33914 ft 476 kts 163°
2026-05-09 01:21 39.55714 29.56705 34231 ft 474 kts 164°
2026-05-09 01:21 39.52628 29.58201 34502 ft 473 kts 164°
2026-05-09 01:21 39.49544 29.59700 34757 ft 473 kts 163°
2026-05-09 01:22 39.46467 29.61213 34983 ft 473 kts 163°
2026-05-09 01:22 39.43393 29.62737 35104 ft 475 kts 163°
2026-05-09 01:22 39.37222 29.65812 35147 ft 476 kts 163°
2026-05-09 01:23 39.31036 29.68900 35142 ft 476 kts 163°
2026-05-09 01:23 39.24853 29.71973 35158 ft 476 kts 163°
2026-05-09 01:24 39.18659 29.75022 35158 ft 477 kts 164°
2026-05-09 01:24 39.12453 29.78080 35150 ft 478 kts 163°
2026-05-09 01:25 39.06235 29.81148 35155 ft 479 kts 163°
2026-05-09 01:25 39.00018 29.84206 35159 ft 478 kts 164°
2026-05-09 01:26 38.93800 29.87258 35147 ft 478 kts 165°
2026-05-09 01:26 38.87577 29.90299 35157 ft 479 kts 165°
2026-05-09 01:27 38.81335 29.93286 35167 ft 479 kts 165°
2026-05-09 01:27 38.75081 29.96235 35187 ft 479 kts 165°
2026-05-09 01:28 38.68829 29.99182 35187 ft 479 kts 165°
2026-05-09 01:28 38.62572 30.02142 35191 ft 479 kts 165°
2026-05-09 01:29 38.56318 30.05110 35188 ft 479 kts 165°
2026-05-09 01:29 38.50069 30.08065 35158 ft 479 kts 167°
2026-05-09 01:30 38.43803 30.11005 35163 ft 480 kts 167°
2026-05-09 01:30 38.37537 30.13962 35184 ft 480 kts 167°
2026-05-09 01:31 38.31277 30.16899 35196 ft 479 kts 167°
2026-05-09 01:31 38.25004 30.19774 35173 ft 479 kts 168°
2026-05-09 01:32 38.18730 30.22630 35187 ft 479 kts 168°
2026-05-09 01:32 38.12497 30.25485 35197 ft 479 kts 168°
2026-05-09 01:33 38.06223 30.28353 35200 ft 479 kts 168°
2026-05-09 01:33 38.00212 30.31103 35183 ft 480 kts 168°
2026-05-09 01:34 37.93937 30.33956 35206 ft 479 kts 168°
2026-05-09 01:34 37.87653 30.36800 35208 ft 479 kts 168°
2026-05-09 01:35 37.81375 30.39633 35176 ft 479 kts 167°
2026-05-09 01:35 37.75092 30.42462 35179 ft 480 kts 167°
2026-05-09 01:36 37.68801 30.45299 35191 ft 480 kts 167°
2026-05-09 01:36 37.62510 30.48131 35189 ft 480 kts 167°
2026-05-09 01:37 37.56215 30.50965 35154 ft 480 kts 167°
2026-05-09 01:37 37.49917 30.53786 35153 ft 480 kts 167°
2026-05-09 01:38 37.43612 30.56595 35155 ft 481 kts 167°
2026-05-09 01:38 37.37311 30.59404 35155 ft 481 kts 167°
2026-05-09 01:39 37.31005 30.62224 35138 ft 481 kts 167°
2026-05-09 01:39 37.24697 30.65022 35130 ft 481 kts 167°
2026-05-09 01:40 37.19404 30.67364 35121 ft 481 kts 167°
2026-05-09 01:40 37.13093 30.70168 35119 ft 481 kts 167°
2026-05-09 01:41 37.06822 30.72948 35106 ft 481 kts 167°
2026-05-09 01:41 37.00497 30.75739 35111 ft 482 kts 167°
2026-05-09 01:42 36.94165 30.78485 35126 ft 479 kts 171°
2026-05-09 01:42 36.87705 30.79620 35127 ft 463 kts 186°
2026-05-09 01:43 36.81261 30.79796 35105 ft 464 kts 186°
2026-05-09 01:43 36.74802 30.80025 35106 ft 464 kts 186°
2026-05-09 01:44 36.68338 30.80277 35110 ft 465 kts 186°
2026-05-09 01:44 36.61873 30.80508 35092 ft 465 kts 186°
2026-05-09 01:45 36.55403 30.80714 35093 ft 465 kts 186°
2026-05-09 01:45 36.48924 30.80931 35102 ft 466 kts 186°
2026-05-09 01:46 36.42443 30.81159 35105 ft 466 kts 186°
2026-05-09 01:46 36.35959 30.81380 35103 ft 466 kts 186°
2026-05-09 01:47 36.29476 30.81602 35109 ft 466 kts 186°
2026-05-09 01:47 36.22996 30.81813 35084 ft 466 kts 186°
2026-05-09 01:48 36.16512 30.82033 35086 ft 466 kts 186°
2026-05-09 01:48 36.10016 30.82258 35094 ft 468 kts 183°
2026-05-09 01:49 36.03573 30.84091 35095 ft 487 kts 162°
2026-05-09 01:49 36.00553 30.86060 35078 ft 495 kts 151°
2026-05-09 01:49 35.97830 30.88598 35080 ft 499 kts 145°
2026-05-09 01:50 35.92417 30.93975 35086 ft 500 kts 146°
2026-05-09 01:50 35.86973 30.99319 35099 ft 500 kts 146°
2026-05-09 01:51 35.81523 31.04657 35098 ft 501 kts 146°
2026-05-09 01:51 35.76075 31.10006 35108 ft 501 kts 146°
2026-05-09 01:52 35.70624 31.15353 35081 ft 501 kts 146°
2026-05-09 01:52 35.65163 31.20685 35100 ft 501 kts 146°
2026-05-09 01:53 35.59706 31.26003 35107 ft 501 kts 145°
2026-05-09 01:53 35.54256 31.31332 35116 ft 500 kts 145°
2026-05-09 01:54 35.48810 31.36631 35116 ft 499 kts 146°
2026-05-09 01:54 35.43356 31.41919 35116 ft 499 kts 146°
2026-05-09 01:55 35.37906 31.47192 35106 ft 499 kts 146°
2026-05-09 01:55 35.32462 31.52454 35114 ft 498 kts 145°
2026-05-09 01:56 35.27025 31.57711 35118 ft 498 kts 145°
2026-05-09 01:56 35.21596 31.62957 35121 ft 497 kts 145°
2026-05-09 01:57 35.16163 31.68188 35120 ft 497 kts 146°
2026-05-09 01:57 35.10727 31.73397 35096 ft 496 kts 145°
2026-05-09 01:58 35.05304 31.78598 35111 ft 495 kts 145°
2026-05-09 01:58 34.99885 31.83789 35115 ft 494 kts 145°
2026-05-09 01:59 34.94479 31.88968 35115 ft 494 kts 145°
2026-05-09 01:59 34.89072 31.94119 35114 ft 493 kts 145°
2026-05-09 02:00 34.83699 31.99234 35111 ft 494 kts 145°
2026-05-09 02:00 34.78290 32.04387 35095 ft 494 kts 145°
2026-05-09 02:01 34.72880 32.09526 35092 ft 494 kts 145°
2026-05-09 02:01 34.67463 32.14667 35092 ft 494 kts 145°
2026-05-09 02:02 34.62046 32.19792 35085 ft 494 kts 145°
2026-05-09 02:02 34.56622 32.24908 35085 ft 494 kts 145°
2026-05-09 02:03 34.51191 32.30019 35085 ft 494 kts 145°
2026-05-09 02:03 34.45762 32.35118 35081 ft 494 kts 144°
2026-05-09 02:04 34.40341 32.40220 35089 ft 493 kts 144°
2026-05-09 02:04 34.34920 32.45308 35091 ft 493 kts 144°
2026-05-09 02:05 34.29496 32.50383 35089 ft 493 kts 145°
2026-05-09 02:05 34.24072 32.55449 35095 ft 493 kts 145°
2026-05-09 02:06 34.18652 32.60514 35079 ft 493 kts 145°
2026-05-09 02:07 34.10506 32.68109 35083 ft 493 kts 145°
2026-05-09 02:07 34.04841 32.72709 35084 ft 491 kts 152°
2026-05-09 02:08 33.99031 32.77034 35093 ft 491 kts 152°
2026-05-09 02:08 33.93258 32.81324 35096 ft 491 kts 152°
2026-05-09 02:09 33.87443 32.85642 35077 ft 491 kts 152°
2026-05-09 02:09 33.81624 32.89958 35091 ft 491 kts 152°
2026-05-09 02:10 33.75802 32.94277 35090 ft 492 kts 152°
2026-05-09 02:10 33.69985 32.98588 35091 ft 492 kts 152°
2026-05-09 02:11 33.64160 33.02897 35093 ft 492 kts 152°
2026-05-09 02:11 33.58335 33.07187 35096 ft 491 kts 152°
2026-05-09 02:12 33.52503 33.11471 35097 ft 491 kts 152°
2026-05-09 02:12 33.46672 33.15751 35098 ft 491 kts 152°
2026-05-09 02:13 33.40845 33.20040 35096 ft 491 kts 152°
2026-05-09 02:13 33.35024 33.24318 35097 ft 491 kts 153°
2026-05-09 02:14 33.29235 33.28549 35081 ft 491 kts 153°
2026-05-09 02:14 33.23398 33.32803 35087 ft 491 kts 153°
2026-05-09 02:15 33.17561 33.37056 35092 ft 491 kts 153°
2026-05-09 02:15 33.11731 33.41304 35094 ft 491 kts 153°
2026-05-09 02:16 33.05889 33.45556 35093 ft 491 kts 153°
2026-05-09 02:16 33.00049 33.49795 35071 ft 492 kts 153°
2026-05-09 02:17 32.94196 33.54030 35072 ft 492 kts 153°
2026-05-09 02:17 32.88337 33.58265 35077 ft 493 kts 153°
2026-05-09 02:18 32.82579 33.62709 35083 ft 497 kts 144°
2026-05-09 02:18 32.77672 33.68485 35084 ft 501 kts 136°
2026-05-09 02:19 32.72846 33.74462 35049 ft 502 kts 137°
2026-05-09 02:19 32.67990 33.80416 35055 ft 502 kts 137°
2026-05-09 02:20 32.63123 33.86379 35060 ft 503 kts 137°
2026-05-09 02:20 32.58253 33.92353 35068 ft 504 kts 137°
2026-05-09 02:21 32.53397 33.98331 35073 ft 504 kts 137°
2026-05-09 02:21 32.48578 34.04361 35080 ft 504 kts 136°
2026-05-09 02:22 32.43651 34.10223 35080 ft 499 kts 145°
2026-05-09 02:22 32.37874 34.14619 35056 ft 494 kts 152°
2026-05-09 02:22 32.35132 34.17107 35057 ft 500 kts 140°
2026-05-09 02:23 32.32792 34.20169 35060 ft 505 kts 129°
2026-05-09 02:23 32.29322 34.27404 35064 ft 508 kts 117°
2026-05-09 02:24 32.26155 34.34865 35061 ft 508 kts 118°
2026-05-09 02:24 32.22931 34.42300 34761 ft 509 kts 118°
2026-05-09 02:24 32.21303 34.46058 33750 ft 518 kts 118°
2026-05-09 02:25 32.19660 34.49875 32785 ft 523 kts 118°
2026-05-09 02:25 32.18039 34.53666 31949 ft 524 kts 117°
2026-05-09 02:25 32.16630 34.57700 31123 ft 525 kts 108°
2026-05-09 02:25 32.15740 34.61819 30319 ft 525 kts 100°
2026-05-09 02:26 32.15059 34.66058 29356 ft 527 kts 100°
2026-05-09 02:26 32.14370 34.70303 28344 ft 527 kts 101°
2026-05-09 02:26 32.13677 34.74514 27373 ft 528 kts 101°
2026-05-09 02:26 32.12983 34.78660 26631 ft 523 kts 101°
2026-05-09 02:27 32.12337 34.82497 25888 ft 519 kts 101°
2026-05-09 02:27 32.11635 34.86670 24567 ft 507 kts 102°
2026-05-09 02:27 32.10881 34.90685 23154 ft 496 kts 107°
2026-05-09 02:27 32.09815 34.94507 21617 ft 486 kts 109°
2026-05-09 02:28 32.08745 34.98245 20223 ft 477 kts 109°
2026-05-09 02:28 32.07703 35.01873 19681 ft 458 kts 109°
2026-05-09 02:28 32.06689 35.05397 19215 ft 452 kts 109°
2026-05-09 02:28 32.06008 35.07765 18837 ft 450 kts 108°
2026-05-09 02:29 32.04680 35.12373 18096 ft 447 kts 108°
2026-05-09 02:29 32.04008 35.14702 17723 ft 445 kts 108°
2026-05-09 02:29 32.03014 35.18150 17197 ft 441 kts 108°
2026-05-09 02:29 32.02028 35.21562 16668 ft 437 kts 109°
2026-05-09 02:30 32.01047 35.24934 16144 ft 434 kts 109°
2026-05-09 02:30 32.00070 35.28281 15602 ft 430 kts 109°
2026-05-09 02:30 31.99107 35.31606 15064 ft 427 kts 108°
2026-05-09 02:30 31.98157 35.34904 14497 ft 424 kts 108°
2026-05-09 02:31 31.97214 35.38190 13943 ft 422 kts 108°
2026-05-09 02:31 31.96280 35.41453 13313 ft 419 kts 109°
2026-05-09 02:31 31.95350 35.44693 12654 ft 416 kts 109°
2026-05-09 02:31 31.94426 35.47899 12086 ft 411 kts 109°
2026-05-09 02:32 31.93673 35.51049 11814 ft 398 kts 101°
2026-05-09 02:32 31.93433 35.54221 11688 ft 381 kts 89°
2026-05-09 02:32 31.93706 35.57299 11569 ft 365 kts 80°
2026-05-09 02:32 31.94133 35.60186 11446 ft 351 kts 80°
2026-05-09 02:33 31.94487 35.62940 11333 ft 338 kts 88°
2026-05-09 02:33 31.94114 35.65572 11167 ft 317 kts 115°
2026-05-09 02:33 31.92896 35.67611 10702 ft 300 kts 142°
2026-05-09 02:33 31.91105 35.68800 10257 ft 295 kts 167°
2026-05-09 02:34 31.89103 35.69233 9837 ft 294 kts 173°
2026-05-09 02:34 31.87106 35.69617 9370 ft 286 kts 172°
2026-05-09 02:34 31.85162 35.70007 8796 ft 282 kts 171°
2026-05-09 02:34 31.83230 35.70397 8311 ft 280 kts 171°
2026-05-09 02:35 31.81317 35.70785 7919 ft 275 kts 171°
2026-05-09 02:35 31.79495 35.71154 7589 ft 260 kts 171°
2026-05-09 02:35 31.77737 35.71510 7406 ft 254 kts 170°
2026-05-09 02:35 31.75996 35.71862 7335 ft 254 kts 170°
2026-05-09 02:36 31.74257 35.72210 6851 ft 252 kts 170°
2026-05-09 02:36 31.72542 35.72553 6370 ft 246 kts 169°
2026-05-09 02:36 31.70975 35.73077 6275 ft 230 kts 149°
2026-05-09 02:36 31.69913 35.74365 6239 ft 212 kts 118°
2026-05-09 02:37 31.69623 35.75996 5890 ft 203 kts 86°
2026-05-09 02:37 31.69844 35.77578 5606 ft 188 kts 82°
2026-05-09 02:37 31.70057 35.78998 5369 ft 167 kts 82°
2026-05-09 02:37 31.70260 35.80385 5147 ft 177 kts 82°
2026-05-09 02:38 31.70471 35.81822 4918 ft 179 kts 81°
2026-05-09 02:38 31.70681 35.83263 4678 ft 179 kts 81°
2026-05-09 02:38 31.70892 35.84703 4444 ft 179 kts 81°
2026-05-09 02:38 31.71102 35.86145 4211 ft 179 kts 80°
2026-05-09 02:39 31.71301 35.87507 3983 ft 162 kts 79°
2026-05-09 02:39 31.71486 35.88782 3792 ft 156 kts 79°
2026-05-09 02:39 31.71668 35.90028 3580 ft 154 kts 79°
2026-05-09 02:39 31.71849 35.91266 3374 ft 154 kts 78°
2026-05-09 02:40 31.72030 35.92503 3166 ft 153 kts 79°
2026-05-09 02:40 31.72208 35.93731 2949 ft 152 kts 80°
2026-05-09 02:40 31.72385 35.94946 2759 ft 150 kts 79°
2026-05-09 02:40 31.72559 35.96152 2558 ft 149 kts 80°
2026-05-09 02:41 31.72735 35.97345 2414 ft 144 kts 80°
2026-05-09 02:41 31.72877 35.98330 2409 ft 98 kts 81°
2026-05-09 02:41 31.72967 35.98953 2413 ft 67 kts 80°
2026-05-09 02:41 31.73010 35.99274 2409 ft 23 kts 89°
2026-05-09 02:42 31.72976 35.99456 2409 ft 23 kts 109°
2026-05-09 02:42 31.72918 35.99634 2409 ft 20 kts 110°
2026-05-09 02:42 31.72878 35.99761 2411 ft 17 kts 110°
2026-05-09 02:42 31.72837 35.99887 2409 ft 14 kts 124°
2026-05-09 02:43 31.72764 35.99916 2411 ft 2 kts 170°
2026-05-09 02:43 31.72759 35.99917 2411 ft 0 kts 170°